[[{"header":{"parameterUnit":"m.s-1","parameterCategory":2,"la1":30.2991,"la2":30.254,"lo1":-89.0895,"lo2":-89.0444,"dy":0.0017,"dx":0.0017,"nx":28,"ny":28,"refTime":"2025-03-29T03:00:00:Z","depth":"0","parameterNumber":2,"parameterNumberName":"U-component_of_CURRENTS"},"data":[0,0,0,0,0,0,0,0,0,0,0,0,0,0,0,0,0,0,0,0,0,0,0,0,0,0,0,0,0,0,0,0,0,0,0,0,0,0,0,0,0,0,0,0,0,0,0,0,0,0,0,0,0,0,0,0,0,0,0.1861,0.1861,0,0.1871,0.1871,0.1871,0.187,0.187,0.187,0.187,0.1873,0.1873,0.1873,0,0,0,0,0,0,0,0,0,0,0,0,0,0.1838,0.1838,0.1861,0.1861,0.1861,0.1871,0.1871,0.1871,0.187,0.187,0.187,0.187,0.1873,0.1873,0.1873,0,0,0,0,0,0,0,0,0,0,0,0,0,0.1847,0.1838,0.1861,0.1863,0.1863,0.1871,0.1871,0.1871,0.187,0.187,0.187,0.187,0.1873,0.1873,0.1873,0.1876,0,0,0.1874,0.1874,0,0,0,0,0,0,0,0,0.1846,0.1847,0.1862,0.1863,0.1863,0.187,0.1864,0.1873,0.187,0.1866,0.187,0.187,0.1872,0.1873,0.1873,0.1876,0.1876,0.1874,0.1874,0.1874,0.1874,0,0,0,0,0,0,0,0.1846,0.1847,0.1863,0.1862,0.1863,0.1862,0.1863,0.1866,0.1868,0.1866,0.1867,0.187,0.1872,0.1873,0.1873,0.1876,0.1874,0.1874,0.1874,0.1874,0.192,0.1921,0,0,0,0,0,0,0.1847,0.1846,0.1863,0.1864,0.1856,0.1863,0.1864,0.1867,0.1869,0.1869,0.187,0.187,0.1873,0.1873,0.1873,0.1909,0.1874,0.1875,0.1875,0.1919,0.192,0.1921,0,0,0,0,0,0,0.1846,0.1848,0.1863,0.1856,0.1858,0.1864,0.1867,0.1867,0.187,0.1871,0.1872,0.1872,0.1873,0.1873,0.1885,0.1908,0.1875,0.1875,0.1918,0.1919,0.1921,0.1959,0,0,0,0,0,0,0.1846,0.1848,0.1848,0.1856,0.1859,0.1872,0.1867,0.1867,0.1872,0.1872,0.1873,0.1874,0.1873,0.1885,0.1885,0.1907,0.1875,0.1916,0.1918,0.192,0.1956,0.1962,0.1966,0,0,0,0,0,0.1845,0.1843,0.1848,0.185,0.1859,0.1872,0.1873,0.1876,0.1872,0.1877,0.1881,0.1874,0.1898,0.1886,0.1886,0.1909,0.1915,0.1918,0.192,0.1954,0.1961,0.1966,0,0,0,0,0,0,0.1828,0.1843,0.1849,0.185,0.1864,0.1873,0.1875,0.1877,0.1884,0.1883,0.1882,0.1883,0.1904,0.19,0.1886,0.1929,0.1908,0.191,0.1933,0.1939,0.1944,0.195,0.1875,0,0,0,0,0,0.1827,0.1831,0.1848,0.185,0.1858,0.1867,0.1871,0.1877,0.1884,0.1887,0.189,0.1898,0.1915,0.1921,0.1929,0.1947,0.1933,0.1964,0.1969,0.1974,0.1979,0.1977,0.1982,0.1929,0.1929,0.1929,0,0,0.1819,0.1829,0.183,0.1847,0.1857,0.1875,0.1869,0.188,0.1899,0.1886,0.1907,0.1912,0.1923,0.1948,0.1958,0.1948,0.198,0.1977,0.198,0.1984,0.198,0.1985,0.199,0.1931,0.1931,0.193,0,0,0.1811,0.1819,0.1824,0.1842,0.1862,0.1874,0.1879,0.1895,0.1906,0.1927,0.193,0.1948,0.1963,0.1982,0.1992,0.2028,0.2005,0.2034,0.2064,0.2062,0.2066,0.207,0.2049,0.205,0.2037,0.2037,0.2037,0,0.1802,0.1814,0.1827,0.1844,0.1861,0.1877,0.1894,0.1913,0.1931,0.1944,0.1939,0.1975,0.1983,0.2022,0.2043,0.204,0.2027,0.2039,0.2068,0.2071,0.2074,0.2052,0.2053,0.2039,0.2039,0.2039,0.2039,0,0.1805,0.1819,0.1826,0.1857,0.1876,0.1893,0.1928,0.1946,0.1961,0.1977,0.2012,0.2025,0.2044,0.2059,0.2066,0.21,0.208,0.2072,0.205,0.2081,0.2056,0.2056,0.2043,0.2042,0.2041,0.2041,0,0,0.1774,0.1819,0.1821,0.184,0.1887,0.19,0.1943,0.1981,0.2002,0.2029,0.2059,0.2099,0.2098,0.2111,0.2121,0.2133,0.2144,0.2118,0.2117,0.2092,0.2126,0.2129,0.2129,0.2139,0.214,0.214,0.2097,0,0.1773,0.1802,0.1829,0.1863,0.1884,0.1923,0.1958,0.1996,0.2028,0.2061,0.2093,0.2118,0.2121,0.213,0.2147,0.2151,0.2148,0.2156,0.2104,0.2102,0.2097,0.2131,0.209,0.205,0.2097,0.2097,0.2097,0,0.1767,0.1791,0.1818,0.1868,0.188,0.1901,0.1956,0.199,0.205,0.2074,0.2111,0.2132,0.2173,0.2161,0.2172,0.2175,0.2154,0.2149,0.2146,0.2138,0.2107,0.2029,0.2048,0.2015,0.2097,0.2097,0.2097,0,0.1732,0.1782,0.1801,0.182,0.1878,0.1895,0.1927,0.1985,0.2017,0.208,0.2105,0.2146,0.2163,0.2163,0.2167,0.2164,0.2166,0.2151,0.2126,0.2124,0.2074,0.2068,0.2053,0.214,0.214,0.2141,0.2141,0,0.1717,0.1731,0.1782,0.1791,0.1815,0.1866,0.1893,0.1937,0.1999,0.2031,0.21,0.2126,0.2165,0.2179,0.217,0.2158,0.2159,0.2139,0.2123,0.2086,0.2082,0.204,0.2015,0.2139,0.2139,0.214,0.214,0,0.1665,0.1701,0.1723,0.1778,0.1795,0.1808,0.1867,0.1889,0.1955,0.2004,0.2025,0.2107,0.213,0.2161,0.2159,0.2153,0.2082,0.2128,0.2081,0.2062,0.202,0.1999,0.1838,0.1776,0.2094,0.2094,0.2094,0,0.1639,0.1645,0.1696,0.1707,0.1727,0.1758,0.1778,0.1853,0.1885,0.198,0.2001,0.2059,0.2089,0.2114,0.2127,0.2119,0.2045,0.2063,0.2061,0.2025,0.1989,0.1867,0.1818,0.1995,0.1994,0.1994,0.1993,0,0.1588,0.1603,0.1619,0.1646,0.1666,0.1691,0.1733,0.1752,0.1837,0.188,0.1924,0.1959,0.2028,0.2031,0.2065,0.2054,0.1974,0.2049,0.202,0.1928,0.1782,0.1713,0.2005,0.1987,0.1988,0.1988,0.1988,0.1989,0.1542,0.1538,0.1559,0.1579,0.1602,0.1615,0.161,0.166,0.1689,0.1736,0.1809,0.1837,0.1938,0.1996,0.1978,0.197,0.191,0.1929,0.1908,0.1788,0.1729,0.2012,0.198,0.198,0.1981,0.1981,0.1982,0,0.1481,0.1483,0.1496,0.1511,0.1507,0.1545,0.157,0.1554,0.1552,0.1617,0.1642,0.1728,0.1777,0.1851,0.1908,0.1848,0.1734,0.18,0.1628,0.159,0.1861,0.1863,0.1795,0.1795,0.1795,0.1795,0.1795,0.1795,0.1447,0.1426,0.1433,0.1408,0.1418,0.1386,0.1379,0.1372,0.1402,0.1409,0.1447,0.1508,0.168,0.179,0.1789,0.1743,0.1583,0.1504,0.147,0.1704,0.1714,0.1724,0.1722,0.1625,0.1625,0.1132,0.1129,0.1126]},{"header":{"parameterUnit":"m.s-1","parameterCategory":2,"la1":30.2991,"la2":30.254,"lo1":-89.0895,"lo2":-89.0444,"dy":0.0017,"dx":0.0017,"nx":28,"ny":28,"refTime":"2025-03-29T03:00:00:Z","depth":"0","parameterNumber":3,"parameterNumberName":"V-component_of_CURRENTS"},"data":[0,0,0,0,0,0,0,0,0,0,0,0,0,0,0,0,0,0,0,0,0,0,0,0,0,0,0,0,0,0,0,0,0,0,0,0,0,0,0,0,0,0,0,0,0,0,0,0,0,0,0,0,0,0,0,0,0,0,0.016,0.0159,0,0.0123,0.0123,0.0123,0.0109,0.0109,0.0109,0.0109,0.0073,0.0072,0.0071,0,0,0,0,0,0,0,0,0,0,0,0,0,0.02,0.02,0.016,0.0159,0.0159,0.0123,0.0123,0.0122,0.0109,0.0109,0.0109,0.0109,0.0073,0.0072,0.0071,0,0,0,0,0,0,0,0,0,0,0,0,0,0.0176,0.02,0.016,0.0147,0.0146,0.0123,0.0123,0.0122,0.0109,0.0109,0.0109,0.0109,0.0074,0.0072,0.0071,0.006,0,0,0.0066,0.0066,0,0,0,0,0,0,0,0,0.0177,0.0174,0.0149,0.0148,0.0146,0.012,0.0124,0.0101,0.0109,0.0123,0.0109,0.0109,0.0088,0.0086,0.0079,0.0058,0.0056,0.0066,0.0065,0.0064,0.0064,0,0,0,0,0,0,0,0.0179,0.0176,0.0146,0.0149,0.0147,0.0138,0.0134,0.012,0.0106,0.0122,0.0121,0.0116,0.0088,0.0081,0.0078,0.0056,0.0066,0.0065,0.0064,0.0063,0.0018,0.0017,0,0,0,0,0,0,0.0183,0.0177,0.0147,0.0145,0.0162,0.0137,0.0133,0.0129,0.0106,0.0103,0.0116,0.0115,0.0083,0.008,0.0077,0.006,0.0064,0.0063,0.0062,0.0018,0.0017,0.0017,0,0,0,0,0,0,0.0184,0.0181,0.0148,0.016,0.0155,0.0136,0.0131,0.0128,0.0123,0.0102,0.0098,0.0114,0.0083,0.0079,0.0066,0.0059,0.0062,0.0061,0.0018,0.0018,0.0017,0.0028,0,0,0,0,0,0,0.0186,0.0181,0.0181,0.016,0.0154,0.014,0.0131,0.0127,0.0119,0.0118,0.0098,0.0095,0.0083,0.0068,0.0065,0.0057,0.006,0.0019,0.0018,0.0017,0.0028,0.0028,0.0028,0,0,0,0,0,0.0187,0.0186,0.0181,0.0177,0.0154,0.014,0.0137,0.0124,0.0119,0.0119,0.0104,0.0096,0.0062,0.0067,0.0063,0.0054,0.0019,0.0018,0.0017,0.0028,0.0028,0.0028,0,0,0,0,0,0,0.0202,0.0183,0.0178,0.0171,0.0159,0.0138,0.0135,0.0125,0.0113,0.0113,0.0094,0.0089,0.0074,0.0063,0.0069,0.0039,0.0038,0.0036,0.0048,0.0047,0.0047,0.0068,0.0059,0,0,0,0,0,0.0205,0.0201,0.0182,0.0177,0.0172,0.0154,0.0147,0.0138,0.0124,0.0118,0.0103,0.0086,0.0067,0.0058,0.0042,0.0027,0.0031,0.0018,0.0018,0.0018,0.0032,0.0037,0.0039,0.0015,0.0015,0.0015,0,0,0.021,0.0199,0.0197,0.0181,0.017,0.0166,0.015,0.0142,0.0138,0.0116,0.0107,0.0087,0.0063,0.0046,0.0038,0.0037,0.0023,0.0017,0.0018,0.0031,0.0036,0.0039,0.0041,0.0014,0.0014,0.0015,0,0,0.0219,0.0208,0.0209,0.02,0.0187,0.0176,0.0175,0.0155,0.0147,0.0135,0.0115,0.0094,0.0069,0.0049,0.0036,0.0027,0.0024,0.0016,0.0031,0.0035,0.0038,0.004,0.0037,0.0039,0.0014,0.0014,0.0015,0,0.0226,0.0225,0.0207,0.0207,0.0204,0.0182,0.0185,0.0171,0.0151,0.0149,0.0137,0.0101,0.0072,0.0054,0.0042,0.0027,0.0031,0.0033,0.0037,0.0039,0.0042,0.0038,0.004,0.0015,0.0015,0.0015,0.0015,0,0.0236,0.0236,0.0236,0.023,0.0224,0.0223,0.0204,0.0199,0.0185,0.0173,0.0156,0.0119,0.0102,0.0078,0.0053,0.0047,0.0044,0.0038,0.0041,0.0045,0.004,0.0042,0.0016,0.0015,0.0015,0.0015,0,0,0.0252,0.0246,0.0247,0.0253,0.0238,0.0237,0.0232,0.0225,0.0233,0.0203,0.0214,0.0155,0.014,0.0123,0.0088,0.0079,0.0076,0.0064,0.0064,0.0068,0.0086,0.0067,0.0067,0.0076,0.0076,0.0077,0.0072,0,0.0268,0.0279,0.0268,0.0282,0.0288,0.0272,0.0274,0.0264,0.0254,0.0259,0.0219,0.0212,0.0155,0.0148,0.0127,0.0098,0.0084,0.0078,0.0076,0.0076,0.0065,0.007,0.01,0.0098,0.0074,0.0075,0.0075,0,0.0285,0.0291,0.0307,0.0319,0.032,0.0323,0.0334,0.0331,0.0326,0.0322,0.0305,0.0283,0.0253,0.0214,0.0167,0.0169,0.0128,0.0101,0.01,0.0085,0.0061,0.0092,0.0103,0.0049,0.0078,0.0078,0.0078,0,0.0312,0.0321,0.0338,0.034,0.0345,0.0352,0.0353,0.0351,0.0369,0.0365,0.039,0.0347,0.0342,0.0291,0.0209,0.0199,0.0169,0.0151,0.0095,0.0093,0.0121,0.012,0.009,0.0128,0.0128,0.0128,0.0128,0,0.0335,0.0349,0.0353,0.0362,0.0391,0.038,0.0411,0.041,0.0431,0.0471,0.0424,0.0452,0.0364,0.033,0.0249,0.0176,0.0197,0.0106,0.0095,0.0122,0.0122,0.0077,0.004,0.0128,0.0128,0.0128,0.0128,0,0.0358,0.036,0.0383,0.0395,0.0403,0.0421,0.0453,0.0483,0.0494,0.0551,0.0561,0.0543,0.0498,0.0399,0.0319,0.0235,0.0132,0.0128,0.0156,0.0148,0.0049,0.0011,-0.0026,-0.0066,0.0083,0.0083,0.0082,0,0.0369,0.0384,0.041,0.043,0.0436,0.0462,0.0492,0.051,0.0555,0.0611,0.0654,0.063,0.0626,0.0488,0.0339,0.0206,0.0129,0.0135,0.0115,0.0054,0.0004,-0.0024,-0.0057,0.0152,0.0152,0.0153,0.0153,0,0.0393,0.0402,0.0422,0.0466,0.0497,0.0539,0.0584,0.0636,0.0678,0.0739,0.0807,0.0812,0.0684,0.0571,0.037,0.0266,0.0106,0.0134,0.0076,0.0061,0.0027,-0.0019,0.0133,0.0155,0.0154,0.0154,0.0154,0.0154,0.041,0.0431,0.0461,0.0503,0.0545,0.0609,0.0653,0.0729,0.0816,0.0917,0.0915,0.0952,0.0792,0.0532,0.0368,0.0127,0.0111,0.0071,0.0031,0.001,-0.0032,0.0113,0.0114,0.0114,0.0114,0.0113,0.0113,0,0.0426,0.0455,0.0499,0.0549,0.06,0.0618,0.0715,0.0776,0.0891,0.0995,0.1053,0.104,0.0823,0.0586,0.027,0.0081,-0.0004,-0.0023,-0.0042,-0.0072,0.0074,0.0073,0.0061,0.0061,0.0061,0.0061,0.0061,0.0061,0.0436,0.0476,0.0501,0.0582,0.0623,0.0698,0.0755,0.0864,0.0959,0.1105,0.1177,0.1214,0.1111,0.0516,0.0121,0.001,-0.0124,-0.0155,-0.024,-0.0124,-0.0117,-0.0112,-0.0121,-0.0174,-0.0174,-0.0351,-0.0352,-0.0354]}],[{"header":{"parameterUnit":"m.s-1","parameterCategory":2,"la1":30.2991,"la2":30.254,"lo1":-89.0895,"lo2":-89.0444,"dy":0.0017,"dx":0.0017,"nx":28,"ny":28,"refTime":"2025-03-29T03:00:00:Z","depth":"2","parameterNumber":2,"parameterNumberName":"U-component_of_CURRENTS"},"data":[0,0,0,0,0,0,0,0,0,0,0,0,0,0,0,0,0,0,0,0,0,0,0,0,0,0,0,0,0,0,0,0,0,0,0,0,0,0,0,0,0,0,0,0,0,0,0,0,0,0,0,0,0,0,0,0,0,0,0.1787,0.1787,0,0.1788,0.1788,0.1788,0.1797,0.1797,0.1798,0.1798,0.1823,0.1824,0.1824,0,0,0,0,0,0,0,0,0,0,0,0,0,0.1765,0.1765,0.1787,0.1787,0.1787,0.1788,0.1788,0.1788,0.1797,0.1797,0.1798,0.1798,0.1823,0.1824,0.1824,0,0,0,0,0,0,0,0,0,0,0,0,0,0.1772,0.1766,0.1787,0.1791,0.1792,0.1788,0.1788,0.1788,0.1797,0.1797,0.1798,0.1798,0.1823,0.1824,0.1825,0.1825,0,0,0.1827,0.1827,0,0,0,0,0,0,0,0,0.1771,0.1773,0.1791,0.1791,0.1791,0.1792,0.179,0.1801,0.1797,0.1796,0.1798,0.1798,0.1815,0.1816,0.1816,0.1826,0.1827,0.1827,0.1828,0.1828,0.1828,0,0,0,0,0,0,0,0.1771,0.1773,0.1788,0.1791,0.1791,0.1783,0.1785,0.1792,0.1805,0.1796,0.1796,0.1795,0.1815,0.1816,0.1817,0.1827,0.1827,0.1828,0.1828,0.1829,0.1898,0.1899,0,0,0,0,0,0,0.1771,0.1772,0.1788,0.1788,0.1781,0.1783,0.1785,0.1792,0.1804,0.1806,0.1795,0.1796,0.1814,0.1816,0.1818,0.1872,0.1828,0.1829,0.1829,0.1896,0.1898,0.1899,0,0,0,0,0,0,0.177,0.1773,0.1788,0.1779,0.178,0.1784,0.1791,0.1792,0.1802,0.1803,0.1806,0.1805,0.1814,0.1817,0.184,0.1871,0.1829,0.183,0.1895,0.1897,0.1899,0.1946,0,0,0,0,0,0,0.177,0.1773,0.1774,0.1779,0.1781,0.1793,0.1791,0.1792,0.18,0.1801,0.1812,0.1814,0.1815,0.1839,0.1841,0.1871,0.183,0.1893,0.1896,0.1898,0.1943,0.1949,0.1955,0,0,0,0,0,0.1769,0.1771,0.1774,0.1776,0.1784,0.1793,0.1794,0.1797,0.18,0.1806,0.182,0.1814,0.1857,0.1841,0.1843,0.1874,0.1892,0.1895,0.1898,0.194,0.1948,0.1955,0,0,0,0,0,0,0.1757,0.1772,0.1776,0.178,0.179,0.1795,0.1798,0.1802,0.1817,0.182,0.1826,0.1829,0.1864,0.1861,0.1842,0.1902,0.1876,0.1879,0.1907,0.1915,0.1921,0.1921,0.1831,0,0,0,0,0,0.1756,0.1765,0.1776,0.178,0.1788,0.1796,0.1799,0.1802,0.1815,0.1821,0.1834,0.1851,0.1876,0.1888,0.1902,0.1929,0.1908,0.1953,0.1959,0.1964,0.1967,0.1962,0.1967,0.1909,0.1909,0.1909,0,0,0.1751,0.176,0.1764,0.1778,0.1788,0.1807,0.1799,0.1808,0.1834,0.1822,0.1862,0.1871,0.1888,0.1924,0.194,0.1926,0.1969,0.1968,0.1973,0.1972,0.1965,0.1971,0.1976,0.1911,0.1911,0.1911,0,0,0.1748,0.1759,0.1768,0.1783,0.1797,0.181,0.1817,0.1833,0.1851,0.1882,0.1891,0.1915,0.1947,0.1968,0.1983,0.203,0.2002,0.204,0.2072,0.2068,0.2072,0.2075,0.2047,0.2048,0.2044,0.2044,0.2044,0,0.1741,0.1759,0.177,0.1788,0.1806,0.1818,0.184,0.1863,0.1885,0.1903,0.1903,0.1957,0.1971,0.202,0.2044,0.2045,0.2026,0.2042,0.2074,0.2077,0.208,0.205,0.205,0.2046,0.2046,0.2046,0.2046,0,0.1748,0.1769,0.1779,0.1815,0.1835,0.1854,0.189,0.1915,0.1938,0.1956,0.2003,0.2021,0.2046,0.2068,0.2075,0.2114,0.2088,0.208,0.2051,0.2089,0.2055,0.2054,0.205,0.2049,0.2048,0.2048,0,0,0.1723,0.1775,0.1779,0.1803,0.1853,0.1866,0.1923,0.1967,0.1993,0.2027,0.2066,0.2118,0.2111,0.2128,0.2138,0.2148,0.2156,0.2129,0.2128,0.2094,0.2127,0.213,0.2129,0.2152,0.2153,0.2153,0.2091,0,0.1729,0.1765,0.1796,0.1842,0.1868,0.191,0.1955,0.1995,0.2033,0.2072,0.2107,0.2137,0.2141,0.2149,0.2165,0.2164,0.2158,0.2172,0.2102,0.21,0.2093,0.213,0.1981,0.1916,0.209,0.209,0.209,0,0.1726,0.1756,0.1795,0.1857,0.1872,0.1899,0.1963,0.2005,0.2068,0.2094,0.2132,0.215,0.219,0.2178,0.2181,0.2188,0.216,0.2151,0.2148,0.2135,0.2103,0.191,0.1907,0.2088,0.2088,0.2088,0.2088,0,0.1692,0.1756,0.1785,0.1808,0.1876,0.1901,0.194,0.2001,0.2037,0.21,0.2123,0.2163,0.2179,0.2171,0.2167,0.2167,0.2156,0.2143,0.2111,0.2109,0.1961,0.1946,0.2124,0.2124,0.2124,0.2124,0.2125,0,0.1681,0.1706,0.1766,0.178,0.1815,0.1872,0.1907,0.1955,0.2019,0.2051,0.2118,0.214,0.2179,0.2186,0.2168,0.2145,0.2145,0.2122,0.2103,0.1974,0.1962,0.2097,0.2095,0.2122,0.2123,0.2123,0.2123,0,0.163,0.1673,0.1707,0.1774,0.1795,0.1814,0.1883,0.1907,0.1973,0.2021,0.2041,0.2121,0.2133,0.2158,0.2145,0.2138,0.2117,0.2097,0.1942,0.1909,0.2064,0.2065,0.2052,0.2052,0.2052,0.2052,0.2052,0,0.1606,0.1617,0.168,0.1698,0.1726,0.1765,0.179,0.1869,0.1902,0.1994,0.2014,0.2064,0.208,0.2089,0.2088,0.2061,0.2088,0.1906,0.1897,0.2079,0.2062,0.2063,0.2064,0.1697,0.1694,0.1692,0.169,0,0.1561,0.1578,0.1603,0.1639,0.1667,0.1699,0.1746,0.1764,0.1851,0.1885,0.192,0.1941,0.199,0.1923,0.194,0.1906,0.1913,0.1859,0.2067,0.1769,0.1748,0.173,0.1742,0.1668,0.167,0.1672,0.1673,0.1674,0.1519,0.1518,0.1546,0.1576,0.1607,0.1622,0.1619,0.1666,0.1688,0.1716,0.1782,0.176,0.1797,0.1757,0.1699,0.1681,0.1817,0.1731,0.1736,0.1744,0.1745,0.1728,0.1641,0.1643,0.1645,0.1646,0.1648,0,0.1462,0.1467,0.1488,0.1513,0.1513,0.1556,0.1581,0.1555,0.1537,0.157,0.1571,0.1454,0.1428,0.1459,0.1409,0.1436,0.1394,0.1368,0.1289,0.1314,0.1336,0.1313,0.1096,0.1093,0.1091,0.109,0,0,0.1431,0.1415,0.1423,0.1408,0.1425,0.1397,0.1389,0.1361,0.1363,0.1293,0.1264,0.1349,0.1423,0.1228,0.1225,0.1144,0.1209,0.11,0.1551,0.1483,0.1501,0.1565,0.1563,0,0,0,0,0]},{"header":{"parameterUnit":"m.s-1","parameterCategory":2,"la1":30.2991,"la2":30.254,"lo1":-89.0895,"lo2":-89.0444,"dy":0.0017,"dx":0.0017,"nx":28,"ny":28,"refTime":"2025-03-29T03:00:00:Z","depth":"2","parameterNumber":3,"parameterNumberName":"V-component_of_CURRENTS"},"data":[0,0,0,0,0,0,0,0,0,0,0,0,0,0,0,0,0,0,0,0,0,0,0,0,0,0,0,0,0,0,0,0,0,0,0,0,0,0,0,0,0,0,0,0,0,0,0,0,0,0,0,0,0,0,0,0,0,0,0.0003,0.0003,0,-0.0038,-0.0038,-0.0039,-0.0054,-0.0054,-0.0054,-0.0054,-0.0083,-0.0083,-0.0084,0,0,0,0,0,0,0,0,0,0,0,0,0,0.0045,0.0045,0.0003,0.0003,0.0002,-0.0038,-0.0038,-0.0039,-0.0054,-0.0054,-0.0054,-0.0054,-0.0082,-0.0083,-0.0084,0,0,0,0,0,0,0,0,0,0,0,0,0,0.0019,0.0044,0.0003,-0.0011,-0.0013,-0.0038,-0.0038,-0.0039,-0.0054,-0.0054,-0.0054,-0.0054,-0.0082,-0.0083,-0.0084,-0.0093,0,0,-0.0088,-0.0089,0,0,0,0,0,0,0,0,0.002,0.0017,-0.0008,-0.001,-0.0012,-0.0042,-0.0034,-0.0057,-0.0054,-0.0037,-0.0054,-0.0054,-0.0068,-0.0071,-0.0078,-0.0095,-0.0096,-0.0088,-0.0089,-0.0089,-0.009,0,0,0,0,0,0,0,0.0022,0.0019,-0.0012,-0.0009,-0.0011,-0.0024,-0.0027,-0.0039,-0.0052,-0.0039,-0.004,-0.0046,-0.0069,-0.0076,-0.0078,-0.0096,-0.0088,-0.0089,-0.009,-0.009,-0.0114,-0.0114,0,0,0,0,0,0,0.0026,0.0021,-0.0011,-0.0014,0.0004,-0.0024,-0.0028,-0.0031,-0.0052,-0.0056,-0.0046,-0.0047,-0.0074,-0.0077,-0.0079,-0.0082,-0.0089,-0.0091,-0.0091,-0.0114,-0.0114,-0.0114,0,0,0,0,0,0,0.0028,0.0024,-0.0009,0.0002,-0.0003,-0.0025,-0.0029,-0.0032,-0.0035,-0.0058,-0.0061,-0.0044,-0.0074,-0.0078,-0.0085,-0.0084,-0.0091,-0.0092,-0.0114,-0.0114,-0.0114,-0.0094,0,0,0,0,0,0,0.0029,0.0025,0.0025,0.0002,-0.0004,-0.0019,-0.0029,-0.0033,-0.0039,-0.004,-0.0057,-0.006,-0.0074,-0.0083,-0.0086,-0.0086,-0.0093,-0.0114,-0.0114,-0.0114,-0.0095,-0.0093,-0.0092,0,0,0,0,0,0.0031,0.0032,0.0025,0.0021,-0.0004,-0.0019,-0.0022,-0.0037,-0.0039,-0.0039,-0.005,-0.006,-0.0084,-0.0084,-0.0087,-0.0088,-0.0114,-0.0114,-0.0114,-0.0096,-0.0094,-0.0092,0,0,0,0,0,0,0.0051,0.003,0.0022,0.0017,0.0002,-0.0021,-0.0022,-0.0032,-0.0042,-0.004,-0.0058,-0.0062,-0.0068,-0.008,-0.0079,-0.0093,-0.0101,-0.0101,-0.0086,-0.0084,-0.0082,-0.0066,-0.0094,0,0,0,0,0,0.0055,0.0052,0.0028,0.0026,0.002,0.0001,-0.0007,-0.0017,-0.003,-0.0034,-0.0045,-0.0058,-0.0071,-0.0078,-0.0089,-0.0098,-0.0101,-0.01,-0.0098,-0.0097,-0.0086,-0.0084,-0.0081,-0.0113,-0.0113,-0.0113,0,0,0.0062,0.005,0.0048,0.003,0.0019,0.0016,-0.0003,-0.001,-0.0011,-0.0035,-0.0034,-0.0052,-0.0071,-0.0081,-0.0085,-0.009,-0.0093,-0.0097,-0.0095,-0.0085,-0.0084,-0.0081,-0.0078,-0.0113,-0.0113,-0.0113,0,0,0.0077,0.0066,0.0068,0.0059,0.0042,0.003,0.0031,0.0011,0.0006,0.0001,-0.0018,-0.0033,-0.0048,-0.0066,-0.0077,-0.0073,-0.0083,-0.0079,-0.0061,-0.0059,-0.0057,-0.0054,-0.0066,-0.0064,-0.008,-0.008,-0.008,0,0.0087,0.0087,0.0067,0.0067,0.0065,0.0041,0.0046,0.0035,0.0017,0.0018,0.0008,-0.0015,-0.004,-0.0051,-0.0057,-0.0069,-0.0071,-0.0067,-0.0057,-0.0054,-0.0052,-0.0064,-0.0063,-0.0079,-0.0079,-0.008,-0.008,0,0.0101,0.0103,0.0106,0.01,0.0094,0.0095,0.0077,0.0076,0.0068,0.0056,0.005,0.0016,0.0004,-0.0014,-0.0038,-0.0039,-0.0048,-0.0053,-0.0059,-0.0047,-0.0062,-0.0061,-0.0078,-0.0078,-0.0079,-0.0079,0,0,0.0122,0.0117,0.012,0.0127,0.0114,0.0113,0.0117,0.0114,0.0127,0.0101,0.0118,0.0071,0.0053,0.004,0.0006,-0.0004,-0.0009,-0.0023,-0.0023,-0.0031,-0.0011,-0.0024,-0.0025,-0.001,-0.0009,-0.0009,-0.0032,0,0.0143,0.0155,0.0146,0.0166,0.0173,0.016,0.0169,0.0163,0.0157,0.0166,0.013,0.0128,0.0073,0.0067,0.0047,0.0013,-0.0003,-0.0003,-0.0024,-0.0025,-0.0035,-0.0023,-0.0011,-0.0031,-0.0031,-0.0031,-0.0031,0,0.0162,0.0169,0.019,0.0207,0.021,0.0217,0.0237,0.0239,0.0238,0.0237,0.0223,0.02,0.0171,0.0132,0.0078,0.0083,0.0037,0.0007,0.0005,-0.0009,-0.0035,-0.0041,-0.0029,-0.0029,-0.0029,-0.0029,-0.003,0,0.0189,0.0204,0.0225,0.0228,0.0238,0.0251,0.0257,0.0261,0.0283,0.0282,0.0306,0.0263,0.0257,0.02,0.0114,0.0105,0.0064,0.0046,-0.0012,-0.0014,-0.0009,-0.0011,0.0015,0.0015,0.0016,0.0016,0.0016,0,0.0214,0.0234,0.024,0.0251,0.0287,0.028,0.0317,0.0321,0.0346,0.0386,0.0341,0.0365,0.0277,0.0238,0.0151,0.0072,0.0089,-0.0001,-0.0015,-0.0004,-0.0005,-0.0005,-0.0007,0.0015,0.0015,0.0015,0.0015,0,0.0239,0.0242,0.0269,0.0287,0.0299,0.032,0.0361,0.0393,0.0406,0.0463,0.0472,0.0453,0.04,0.03,0.0211,0.0128,0.0048,0.0011,0.002,0.0008,-0.0042,-0.0043,-0.0041,-0.0041,-0.0042,-0.0042,-0.0042,0,0.025,0.0265,0.0296,0.032,0.033,0.0363,0.0396,0.042,0.0465,0.0518,0.0559,0.0529,0.0513,0.0367,0.0222,0.008,0.0049,-0.0007,-0.0025,-0.0031,-0.0045,-0.0045,-0.0045,-0.0018,-0.0018,-0.0018,-0.0018,0,0.0275,0.0285,0.0307,0.0354,0.0391,0.0436,0.0486,0.0538,0.0582,0.0634,0.0689,0.0682,0.0552,0.0416,0.0219,0.0117,0.0017,-0.0013,-0.0007,-0.0006,-0.0012,-0.0024,-0.0025,-0.0019,-0.0019,-0.0019,-0.0019,-0.0019,0.0294,0.0314,0.0344,0.0391,0.0437,0.0503,0.0548,0.0618,0.0696,0.0773,0.0769,0.0756,0.0611,0.036,0.0193,0.0015,0.0025,-0.0044,-0.0043,-0.0042,-0.0035,-0.0042,-0.0054,-0.0054,-0.0055,-0.0055,-0.0055,0,0.0311,0.0338,0.0383,0.0435,0.0487,0.0512,0.0608,0.0653,0.0748,0.0813,0.0845,0.0695,0.0557,0.038,0.0129,-0.002,-0.0038,-0.008,-0.0063,-0.0061,-0.006,-0.0053,-0.0077,-0.0078,-0.0078,-0.0079,0,0,0.0321,0.0358,0.0381,0.0462,0.0508,0.0582,0.0638,0.0711,0.0772,0.0812,0.0814,0.0803,0.061,0.0421,0.0219,0.0075,0.0035,0.0036,0.0071,0.0117,0.012,-0.0022,-0.0008,0,0,0,0,0]}],[{"header":{"parameterUnit":"m.s-1","parameterCategory":2,"la1":30.2991,"la2":30.254,"lo1":-89.0895,"lo2":-89.0444,"dy":0.0017,"dx":0.0017,"nx":28,"ny":28,"refTime":"2025-03-29T03:00:00:Z","depth":"4","parameterNumber":2,"parameterNumberName":"U-component_of_CURRENTS"},"data":[0,0,0,0,0,0,0,0,0,0,0,0,0,0,0,0,0,0,0,0,0,0,0,0,0,0,0,0,0,0,0,0,0,0,0,0,0,0,0,0,0,0,0,0,0,0,0,0,0,0,0,0,0,0,0,0,0,0,0.0961,0.0962,0,0.0981,0.0981,0.0981,0.1011,0.1011,0.1012,0.1013,0.1066,0.1067,0.1067,0,0,0,0,0,0,0,0,0,0,0,0,0,0.0939,0.0939,0.0961,0.0962,0.0962,0.0981,0.0981,0.0981,0.101,0.1011,0.1012,0.1013,0.1066,0.1066,0.1067,0,0,0,0,0,0,0,0,0,0,0,0,0,0.095,0.0939,0.0961,0.0981,0.0983,0.0981,0.0981,0.0981,0.101,0.1011,0.1013,0.1014,0.1065,0.1066,0.1067,0.1052,0,0,0.1071,0.1071,0,0,0,0,0,0,0,0,0.0949,0.0951,0.0977,0.098,0.0982,0.0997,0.0993,0.1008,0.101,0.0997,0.1013,0.1014,0.1047,0.1049,0.1047,0.1055,0.1057,0.1071,0.1072,0.1072,0.1072,0,0,0,0,0,0,0,0.0949,0.095,0.0967,0.0978,0.0981,0.0986,0.0988,0.0996,0.1014,0.0998,0.1001,0.1007,0.1048,0.1045,0.1048,0.1058,0.1071,0.1072,0.1072,0.1073,0.1118,0.1118,0,0,0,0,0,0,0.095,0.0949,0.0966,0.0968,0.0971,0.0986,0.0988,0.0989,0.1013,0.1019,0.1006,0.1008,0.1043,0.1047,0.105,0.1102,0.1072,0.1073,0.1074,0.1117,0.1118,0.1119,0,0,0,0,0,0,0.095,0.0951,0.0965,0.0961,0.0964,0.0985,0.0985,0.0989,0.1009,0.1019,0.1025,0.1026,0.1044,0.1049,0.107,0.1102,0.1074,0.1074,0.1117,0.1118,0.1118,0.1163,0,0,0,0,0,0,0.0949,0.0951,0.0964,0.0961,0.0964,0.0974,0.0985,0.0988,0.1011,0.1014,0.1038,0.1042,0.1045,0.1068,0.1071,0.1103,0.1075,0.1116,0.1117,0.1118,0.1161,0.1165,0.1169,0,0,0,0,0,0.0948,0.0958,0.0964,0.0967,0.0977,0.0974,0.0976,0.0993,0.1011,0.1016,0.1034,0.1043,0.1077,0.1069,0.1072,0.1106,0.1116,0.1117,0.1118,0.1159,0.1164,0.1169,0,0,0,0,0,0,0.0962,0.0962,0.0969,0.0981,0.0983,0.0981,0.0995,0.1004,0.102,0.1034,0.1044,0.1049,0.1078,0.108,0.1071,0.112,0.11,0.1102,0.113,0.1135,0.1139,0.1129,0.1076,0,0,0,0,0,0.0969,0.0974,0.0973,0.0985,0.0988,0.0995,0.1003,0.1011,0.102,0.103,0.105,0.1069,0.108,0.1099,0.1104,0.1131,0.1139,0.1156,0.116,0.1163,0.1156,0.1203,0.1211,0.1123,0.1123,0.1123,0,0,0.0979,0.0981,0.0986,0.0989,0.0995,0.099,0.1002,0.1016,0.102,0.1033,0.1061,0.1081,0.1087,0.1114,0.113,0.1127,0.1193,0.1165,0.1168,0.1159,0.1205,0.1214,0.1222,0.1123,0.1123,0.1123,0,0,0.0986,0.1002,0.1002,0.1002,0.1012,0.1008,0.1015,0.1026,0.1043,0.1048,0.1076,0.1111,0.1118,0.1149,0.1155,0.1183,0.1205,0.1199,0.1225,0.1271,0.1279,0.1286,0.131,0.1319,0.1212,0.1212,0.1212,0,0.1,0.0996,0.1003,0.1,0.1002,0.1015,0.101,0.102,0.1041,0.1067,0.1056,0.1107,0.1124,0.1173,0.1191,0.1194,0.122,0.1209,0.1278,0.1285,0.1292,0.1314,0.1324,0.1214,0.1214,0.1214,0.1213,0,0.0996,0.0999,0.1002,0.0995,0.0996,0.0999,0.1004,0.1035,0.1047,0.106,0.1107,0.1124,0.1162,0.1183,0.1192,0.1268,0.1271,0.1273,0.1269,0.1304,0.1325,0.1334,0.1217,0.1217,0.1216,0.1215,0,0,0.1004,0.0997,0.1001,0.0989,0.0996,0.0986,0.1014,0.1035,0.1069,0.1087,0.112,0.1158,0.1197,0.1207,0.125,0.1297,0.1373,0.1317,0.1319,0.1345,0.1475,0.1377,0.1377,0.1405,0.1406,0.1408,0.1473,0,0.0998,0.0986,0.0985,0.0967,0.0956,0.0981,0.1002,0.1033,0.1061,0.1104,0.1142,0.1184,0.1197,0.124,0.1285,0.1358,0.1398,0.1354,0.1432,0.1433,0.1347,0.1385,0.1413,0.1479,0.1481,0.1482,0.1483,0,0.0988,0.0978,0.0967,0.0952,0.0952,0.0955,0.1001,0.1027,0.1104,0.1132,0.119,0.1215,0.1302,0.1289,0.1407,0.1389,0.1432,0.1467,0.1471,0.1366,0.1352,0.1436,0.1499,0.1498,0.1497,0.1496,0.1495,0,0.0976,0.0957,0.0946,0.0941,0.0939,0.0962,0.0988,0.106,0.109,0.1187,0.1212,0.1289,0.1343,0.1403,0.1473,0.1463,0.1578,0.1568,0.1507,0.1501,0.155,0.1542,0.1629,0.1628,0.1628,0.1628,0.1628,0,0.0957,0.0945,0.0946,0.094,0.0944,0.0961,0.1004,0.106,0.1127,0.1165,0.1246,0.1278,0.1381,0.1444,0.149,0.1524,0.1595,0.1509,0.1513,0.1566,0.1559,0.1557,0.1547,0.1631,0.163,0.163,0.1629,0,0.0941,0.0944,0.0921,0.0927,0.094,0.0956,0.1005,0.1027,0.1127,0.118,0.1212,0.1304,0.1403,0.1471,0.1581,0.1546,0.1591,0.1582,0.1631,0.1638,0.1474,0.1466,0.151,0.1507,0.1505,0.1503,0.1501,0,0.0925,0.092,0.092,0.0917,0.0923,0.0956,0.0975,0.1041,0.1056,0.1181,0.1181,0.1304,0.1361,0.1433,0.1519,0.1581,0.1569,0.1565,0.1509,0.1463,0.1464,0.146,0.1455,0.1497,0.1497,0.1496,0.1495,0,0.0893,0.0908,0.0891,0.0893,0.0894,0.0886,0.092,0.0919,0.0997,0.1081,0.114,0.12,0.1299,0.138,0.1444,0.1482,0.1552,0.154,0.1544,0.1491,0.1448,0.145,0.1449,0.1487,0.1488,0.1489,0.1489,0,0.0874,0.0861,0.0855,0.0836,0.0842,0.081,0.0832,0.084,0.0868,0.0992,0.1017,0.1165,0.128,0.133,0.1387,0.1419,0.1397,0.1343,0.1357,0.1367,0.1291,0.1214,0.1186,0,0,0,0,0,0.0845,0.0821,0.0799,0.0757,0.0755,0.0758,0.0777,0.0795,0.0868,0.0878,0.0944,0.1034,0.1135,0.1212,0.1221,0.1318,0.1394,0.1319,0.1335,0.1441,0.145,0.1375,0,0,0,0,0,0,0.0822,0.0811,0.0774,0.0689,0.0662,0.0639,0.0651,0.0693,0.0702,0.081,0.0877,0.0971,0.1091,0.1139,0.1209,0.1229,0.1215,0.141,0.1407,0.1435,0.1444,0.1452,0.1377,0,0,0,0,0]},{"header":{"parameterUnit":"m.s-1","parameterCategory":2,"la1":30.2991,"la2":30.254,"lo1":-89.0895,"lo2":-89.0444,"dy":0.0017,"dx":0.0017,"nx":28,"ny":28,"refTime":"2025-03-29T03:00:00:Z","depth":"4","parameterNumber":3,"parameterNumberName":"V-component_of_CURRENTS"},"data":[0,0,0,0,0,0,0,0,0,0,0,0,0,0,0,0,0,0,0,0,0,0,0,0,0,0,0,0,0,0,0,0,0,0,0,0,0,0,0,0,0,0,0,0,0,0,0,0,0,0,0,0,0,0,0,0,0,0,-0.008,-0.0081,0,-0.0107,-0.0108,-0.0108,-0.014,-0.0141,-0.0142,-0.0142,-0.0178,-0.0179,-0.0179,0,0,0,0,0,0,0,0,0,0,0,0,0,-0.0046,-0.0047,-0.008,-0.0081,-0.0081,-0.0107,-0.0108,-0.0108,-0.014,-0.0141,-0.0142,-0.0142,-0.0178,-0.0179,-0.0179,0,0,0,0,0,0,0,0,0,0,0,0,0,-0.0066,-0.0047,-0.008,-0.0101,-0.0103,-0.0107,-0.0108,-0.0108,-0.014,-0.0141,-0.0142,-0.0143,-0.0178,-0.0179,-0.0179,-0.0168,0,0,-0.0181,-0.0182,0,0,0,0,0,0,0,0,-0.0064,-0.0067,-0.0097,-0.0099,-0.0102,-0.0122,-0.0109,-0.0129,-0.014,-0.0126,-0.0142,-0.0143,-0.016,-0.0162,-0.0165,-0.0169,-0.0171,-0.0181,-0.0182,-0.0182,-0.0182,0,0,0,0,0,0,0,-0.0063,-0.0066,-0.0091,-0.0097,-0.01,-0.0105,-0.0109,-0.0113,-0.0138,-0.0127,-0.0129,-0.0133,-0.0161,-0.0164,-0.0166,-0.0171,-0.0181,-0.0182,-0.0183,-0.0183,-0.015,-0.0149,0,0,0,0,0,0,-0.006,-0.0064,-0.009,-0.0091,-0.0085,-0.0105,-0.0109,-0.0114,-0.0138,-0.0142,-0.0132,-0.0134,-0.0162,-0.0165,-0.0167,-0.0138,-0.0182,-0.0183,-0.0183,-0.0152,-0.015,-0.0149,0,0,0,0,0,0,-0.0059,-0.0062,-0.0089,-0.0079,-0.0083,-0.0105,-0.011,-0.0114,-0.0122,-0.0141,-0.0146,-0.0136,-0.0163,-0.0166,-0.0166,-0.014,-0.0183,-0.0184,-0.0153,-0.0151,-0.0149,-0.009,0,0,0,0,0,0,-0.0058,-0.0062,-0.0061,-0.0079,-0.0083,-0.0088,-0.0109,-0.0114,-0.0123,-0.0126,-0.0146,-0.015,-0.0164,-0.0164,-0.0166,-0.0142,-0.0184,-0.0155,-0.0152,-0.015,-0.0093,-0.0086,-0.008,0,0,0,0,0,-0.0057,-0.0053,-0.0061,-0.0064,-0.0083,-0.0087,-0.0089,-0.0108,-0.0122,-0.0119,-0.0131,-0.015,-0.015,-0.0164,-0.0167,-0.0142,-0.0156,-0.0153,-0.015,-0.0096,-0.0087,-0.008,0,0,0,0,0,0,-0.0037,-0.0057,-0.0066,-0.0068,-0.0075,-0.0093,-0.0092,-0.0105,-0.0113,-0.0117,-0.0139,-0.0142,-0.0129,-0.0144,-0.0158,-0.0124,-0.0154,-0.0151,-0.0112,-0.0104,-0.0097,-0.0094,-0.0185,0,0,0,0,0,-0.0032,-0.0035,-0.0052,-0.0052,-0.0056,-0.0073,-0.0078,-0.0089,-0.01,-0.0105,-0.0118,-0.0125,-0.0117,-0.0119,-0.0119,-0.0105,-0.0138,-0.0089,-0.0082,-0.0076,-0.0074,-0.0113,-0.011,-0.0139,-0.0139,-0.0139,0,0,-0.0024,-0.0034,-0.0036,-0.0047,-0.0056,-0.0049,-0.0078,-0.0081,-0.0067,-0.0106,-0.0093,-0.0104,-0.0108,-0.0088,-0.0083,-0.0099,-0.0081,-0.0072,-0.0067,-0.0069,-0.011,-0.0107,-0.0105,-0.0137,-0.0137,-0.0138,0,0,-0.0007,-0.0018,-0.0016,-0.0018,-0.0028,-0.0032,-0.0032,-0.0047,-0.0046,-0.0034,-0.0052,-0.0048,-0.0046,-0.0041,-0.0037,0.0007,-0.0044,0.0006,0.0042,0.0004,0.0005,0.0006,-0.0021,-0.0023,0.0009,0.0009,0.0009,0,0.0004,0.0004,-0.0013,-0.0008,-0.0,-0.0021,-0.0006,-0.0002,-0.0013,-0.0006,-0.0021,-0.0012,-0.0016,0.0011,0.003,0.0024,-0.0014,0.001,0.0011,0.0011,0.0011,-0.0017,-0.0021,0.0012,0.0012,0.0011,0.0011,0,0.0022,0.0026,0.003,0.0034,0.0043,0.0051,0.0056,0.0064,0.0064,0.0062,0.008,0.007,0.007,0.0079,0.0071,0.0078,0.0048,0.0022,-0.0014,0.0017,-0.0014,-0.0018,0.0017,0.0016,0.0015,0.0014,0,0,0.0038,0.0041,0.0044,0.0057,0.0066,0.0077,0.011,0.0132,0.0148,0.0145,0.0159,0.0183,0.0155,0.0158,0.0141,0.0117,0.0096,0.007,0.0066,0.0037,0.0007,0.0019,0.0015,0.0054,0.0054,0.0053,-0.0011,0,0.0059,0.0076,0.0081,0.0119,0.013,0.014,0.0175,0.0194,0.02,0.0206,0.0202,0.0206,0.0193,0.0184,0.0163,0.0105,0.0085,0.0116,-0.0013,-0.0016,-0.0015,0.0011,0.0051,-0.0015,-0.0016,-0.0016,-0.0017,0,0.0077,0.0087,0.0116,0.0159,0.0168,0.0195,0.024,0.0267,0.0278,0.0277,0.0272,0.0248,0.0234,0.0205,0.013,0.014,0.0085,0.004,0.0036,0.0022,-0.0012,-0.0054,-0.0026,-0.0025,-0.0024,-0.0024,-0.0023,0,0.009,0.0122,0.0148,0.0159,0.0197,0.0227,0.0258,0.0284,0.0311,0.0307,0.0304,0.0276,0.0253,0.0182,0.0111,0.0102,0.0012,-0.0015,-0.0049,-0.0049,-0.0071,-0.0072,-0.0069,-0.0069,-0.0069,-0.0068,-0.0068,0,0.0109,0.0135,0.0155,0.0169,0.0218,0.0244,0.0296,0.0315,0.0337,0.0358,0.0331,0.0325,0.0239,0.0183,0.0111,0.0026,0.0011,-0.0037,-0.0064,-0.0041,-0.0038,-0.0074,-0.0074,-0.0071,-0.007,-0.007,-0.0069,0,0.0119,0.0127,0.0158,0.0199,0.0219,0.0253,0.0322,0.0353,0.0366,0.0384,0.0381,0.0348,0.0276,0.0201,0.0084,0.0031,-0.0055,-0.008,-0.0034,-0.0059,-0.0093,-0.0089,-0.0136,-0.0136,-0.0136,-0.0136,-0.0136,0,0.0124,0.0135,0.0173,0.0193,0.0214,0.0269,0.0309,0.0357,0.0383,0.0399,0.04,0.0352,0.0318,0.0177,0.0088,-0.0038,-0.0054,-0.0102,-0.0103,-0.0078,-0.01,-0.0096,-0.0091,-0.0136,-0.0136,-0.0136,-0.0136,0,0.0136,0.0142,0.0163,0.0195,0.0236,0.029,0.0346,0.037,0.0416,0.0427,0.0416,0.0358,0.0283,0.018,0.0093,-0.0001,-0.0076,-0.0103,-0.0104,-0.0105,-0.0079,-0.01,-0.0096,-0.0136,-0.0136,-0.0136,-0.0136,0,0.0143,0.0152,0.0169,0.0202,0.0246,0.0293,0.0332,0.0372,0.0408,0.0428,0.042,0.0355,0.0319,0.0199,0.0114,0.0033,0.0001,-0.004,-0.0045,-0.0046,0.0004,0.0053,0.0018,0,0,0,0,0,0.0149,0.0156,0.0182,0.0212,0.0254,0.028,0.0347,0.0383,0.0422,0.0418,0.0426,0.0364,0.0253,0.0206,0.0125,0.0096,-0.0024,-0.0004,-0.0076,-0.0137,-0.0137,-0.0092,0,0,0,0,0,0,0.015,0.0168,0.0174,0.0211,0.0232,0.0285,0.0325,0.0357,0.0363,0.0388,0.0335,0.0324,0.0219,0.0292,0.0114,0.0091,0.003,-0.0049,-0.0051,-0.0137,-0.0137,-0.0137,-0.009,0,0,0,0,0]}]]